Regional Weather Roundup
Issued by NWS

Home | Current Version | Previous Version | Text Only | Print | Product List | Glossary Off
Versions: 1 2 3 4 5 6 7 8 9 10 11 12 13 14 15 16 17 18 19 20 21 22 23 24 25 26 27 28 29 30 31 32 33 34 35 36 37 38 39 40 41 42 43 44 45 46 47 48 49 50

000
ASUS45 KPSR 060710
RWRAZ

ARIZONA HOURLY REGIONAL WEATHER ROUNDUP
NATIONAL WEATHER SERVICE PHOENIX AZ
1200 AM MST SAT FEB 06 2016

NOTE: FAIR INDICATES FEW OR NO CLOUDS BELOW 12,000 FEET WITH NO
SIGNIFICANT WEATHER AND/OR OBSTRUCTIONS TO VISIBILITY.

AZZ001>003-036-060800-
NORTHWEST ARIZONA

CITY           SKY/WX    TMP DP  RH WIND       PRES   REMARKS
BULLHEAD CITY  CLEAR     55  25  30 N16       30.42S
KINGMAN        CLEAR     34  32  92 N9        30.45R WCI  27
$$

AZZ004>008-015-016-018-060800-
NORTH CENTRAL ARIZONA

CITY           SKY/WX    TMP DP  RH WIND       PRES   REMARKS
GRAND CANYON   PTCLDY    16  10  77 NE10      30.48R WCI   4
WILLIAMS       CLEAR     23   7  50 SE6       30.49S WCI  16
PRESCOTT       CLEAR     29  15  56 CALM      30.44S
FLAGSTAFF      CLEAR     21  11  65 NE7       30.45S WCI  12
PAYSON         CLEAR     34  14  44 E5G12     30.44F WCI  30
PAGE           CLEAR     29  21  72 SE8       30.52R WCI  21
$$

AZZ009>014-017-060800-
NORTHEAST ARIZONA

CITY           SKY/WX    TMP DP  RH WIND       PRES   REMARKS
WINSLOW        CLEAR     21  15  78 SW6       30.51R WCI  13
SAINT JOHNS    CLEAR     22  14  71 S7        30.48R WCI  13
WINDOW ROCK    CLEAR     12   0  58 CALM      30.48R
SHOW LOW       LGT RAIN  19  10  68 E7        30.48F WCI  10
$$

AZZ023-060800-
GREATER PHOENIX AREA

CITY           SKY/WX    TMP DP  RH WIND       PRES   REMARKS
PHOENIX        CLEAR     50  22  33 W6        30.34R
BUCKEYE        CLEAR     57  12  17 NE14      30.36S
LUKE AFB       CLEAR     54  17  23 NE16      30.35R
DEER VALLEY    CLEAR     49  16  26 N9        30.35S
SCOTTSDALE     CLEAR     55   9  16 CALM      30.36S
MESA-GATEWAY   CLEAR     43  21  42 E6        30.35R
$$

AZZ027-028-060800-
SOUTHWEST MARICOPA COUNTY AND PINAL COUNTY

CITY           SKY/WX    TMP DP  RH WIND       PRES   REMARKS
CASA GRANDE    CLEAR     52  16  24 N8        30.34R
GILA BEND      FAIR      49  20  32 NE9       30.32S
$$

AZZ503-504-507>509-060800-
SOUTHEAST ARIZONA

CITY           SKY/WX    TMP DP  RH WIND       PRES   REMARKS
TUCSON         CLEAR     44  17  33 NE3       30.36R
DAVIS-MONTHAN  CLEAR     42  16  34 SE8       30.34R
NOGALES        CLEAR     42  10  27 N8        30.35R
SIERRA VISTA   CLEAR     37  13  37 S9        30.39R WCI  30
DOUGLAS        CLEAR     39  10  30 E9        30.40R WCI  33
SAFFORD        CLEAR     44   9  23 E10       30.40R
$$

AZZ020-021-025-026-031-060800-
SOUTHWEST ARIZONA

CITY           SKY/WX    TMP DP  RH WIND       PRES   REMARKS
YUMA           CLEAR     58  23  26 N9        30.32F
$$

CAZ031-033-041-043-047-048-061-060800-
SOUTHERN CALIFORNIA

CITY           SKY/WX    TMP DP  RH WIND       PRES   REMARKS
DOWNTOWN L.A.  CLEAR     58  29  33 CALM      30.28R
L.A. AIRPORT   CLEAR     63  25  23 NE5       30.28R
SAN DIEGO      CLEAR     58  35  42 CALM      30.27R
BURBANK        CLEAR     55  23  28 CALM      30.28S
ONTARIO        CLEAR     55  25  31 N3        30.29S
RIVERSIDE      CLEAR     53  23  31 E5        30.32S
PALM SPRINGS   CLEAR     59  25  27 W5        30.39R
EL CENTRO NAS  CLEAR     47  17  30 W9        30.37S
IMPERIAL       CLEAR     48  24  39 SW5       30.35R
BLYTHE         CLEAR     56  23  27 N14       30.36S
NEEDLES        CLEAR     55  24  30 N10       30.40S
$$

NVZ020-UTZ003-060800-
SOUTHERN NEVADA-UTAH

CITY           SKY/WX    TMP DP  RH WIND       PRES   REMARKS
LAS VEGAS      CLEAR     45  25  45 SW3       30.43R
SALT LAKE CITY PTCLDY    27  20  75 SE9       30.52F WCI  18
$$

NMZ009-TXZ055-060800-
NEW MEXICO-WEST TEXAS

CITY           SKY/WX    TMP DP  RH WIND       PRES   REMARKS
ALBUQUERQUE    CLOUDY    30  12  47 NW13      30.48R WCI  20
EL PASO        CLEAR     36   4  26 N12       30.41F WCI  28
$$


........................KEY........................
SKY/WX - SKY CONDITION/WEATHER
TMP    - TEMPERATURE IN FAHRENHEIT
DP     - DEW POINT IN FAHRENHEIT
RH     - RELATIVE HUMIDITY IN PERCENT
WIND   - DIRECTION AND SPEED IN MILES PER HOUR (MPH)
VRB    - VARIABLE WIND DIRECTION
PRES   - MEAN SEA LEVEL PRESSURE IN INCHES OF MERCURY
         F - FALLING PRESSURE   R - RISING PRESSURE
         S - STEADY PRESSURE
VSB    - VISIBILITY IN MILES
HX     - HEAT INDEX IN FAHRENHEIT
WCI    - WIND CHILL INDEX IN FAHRENHEIT
TC     - TEMPERATURE IN CELSIUS WHICH IS ALSO KNOWN AS
         TEMPERATURE IN CENTIGRADE
AFB    - AIR FORCE BASE
         LUKE AFB IS LUKE AIR FORCE BASE
         DAVIS-MONTHAN IS DAVIS-MONTHAN AIR FORCE BASE
NAS    - NAVAL AIR STATION
         EL CENTRO NAS IS EL CENTRO NAVAL AIR STATION
N/A    - NOT AVAILABLE




USA.gov is the U.S. government's official web portal to all federal, state and local government web resources and services.